sat.trackr.live / text

‹ back to catalog

SPACEMOBILE-006

NORAD 67232 · 2025-309A

PAYLOAD ACTIVE UNKNOWN

§ Identity

Operator
Country
US
Launch date
2025-12-24
Launch site
SRILR
Launch vehicle
Mass (kg)
RCS (m²)

External: N2YO · Heavens-Above · Gunter

§ Orbital elements

Epoch: 2026-05-25T04:53:37.378176Z

Period
94.84 min
Inclination
52.9940°
Eccentricity
0.0012322
Mean motion
15.18383202 rev/d
Perigee alt
502.2 km
Apogee alt
519.2 km
Semi-major
6,888.9 km
B*
1.5581e-4
RAAN
76.8901°
Arg perigee
64.8087°
Mean anomaly
295.4182°
Rev number
2,310

§ Raw data

SPACEMOBILE-0061 67232U 25309A   26145.20390484  .00002927  00000+0  15581-3 0  99992 67232  52.9940  76.8901 0012322  64.8087 295.4182 15.18383202 23105

JSON: /api/v1/satellites/67232 · /tle

For live sub-satellite position, see the globe view (requires WebGL).

§ Visibility from observer

Set your observer location to see the next 7 days of passes ≥ 10°. The values pass through the URL so the page stays shareable.

No JS? Fill the form by hand. The geolocation button needs JavaScript.

§ Radio — SatNOGS DB

ModeDescriptionDownlinkUplink
GFSK Mode U - Transmitter 435.000 MHz
GFSK Mode U - Unconfirmed Transmitter 1 430.500 MHz
GFSK Mode U - Unconfirmed Transmitter 2 432.300 MHz
GFSK Mode U - Unconfirmed Transmitter 3 434.100 MHz
GFSK Mode U - Unconfirmed Transmitter 4 435.900 MHz
GFSK Mode U - Unconfirmed Transmitter 5 437.500 MHz
GFSK Mode U - Unconfirmed Transmitter 6 439.500 MHz

7 transmitters · refreshed weekly from db.satnogs.org